Location: Helsinki
(60.1699°N, 24.9384°E)
Time: 15:33:40
(UTC+02:00)

A-11 Canister half - Pass Details

Date: 02 November 2020
Orbit: 1525 x 1684 km, 47.3° (Epoch: 29 November)

Event Time Altitude Azimuth Distance (km) Brightness Sun altitude
Rises 20:43:37 0° 277° (W) 4,704 12.5 -32.3°
Reaches altitude 10° 20:50:07 10° 245° (WSW) 3,697 11.3 -33.0°
Maximum altitude 20:52:05 11° 232° (SW) 3,627 11.1 -33.2°
Drops below altitude 10° 20:54:03 10° 219° (SW) 3,689 11.0 -33.4°
Enters shadow 20:58:05 - 197° (SSW) 4,186 11.1 -33.8°
